Home   Weather   Muttenz   Past weeks

Flag for Switzerland Past Weather in Muttenz, Basel-Land, Switzerland — Yesterday and Last 2 Weeks

Now
27 °F

Passing clouds.


Feels Like: 16 °F
Forecast: 18 / 28 °F
Wind: 12 mph from North

Location: Bale-Mulhouse

Current Time: Jan 17, 2017 at 2:02:52 am

Latest Report: Jan 17, 2017 at 1:00 am


Visibility: N/A

Pressure: 30.30 "Hg

Humidity: 74%

Dew Point: 19 °F

Location of MuttenzLocation

Past Weather in Muttenz — Graph

°F

Muttenz Temperature Yesterday

Maximum temperature yesterday: 32 °F (at 1:30 pm)
Minimum temperature yesterday: 23 °F (at 4:30 am)
Average temperature yesterday: 28 °F

High & Low Weather Summary for the Past Weeks

 TemperatureHumidityPressure
High50 °F (Jan 12, 11:00 pm)100% (Jan 2, 12:30 am)30.69 "Hg (Jan 2, 12:30 am)
Low9 °F (Jan 7, 2:30 am)59% (Jan 7, 12:30 pm)29.45 "Hg (Jan 12, 11:30 pm)
Average31 °F86%30.19 "Hg
* Reported Jan 2 12:30 am — Jan 17 12:30 am, Muttenz, Weather by CustomWeather, © 2017

Note: Actual official high and low records may vary slightly from our data, if they occured in-between our weather recording intervals... More about our weather records

Advertising

Muttenz Weather History for the Previous 24 Hours

Scroll right to see more
 ConditionsComfort  
Time TempWeatherWind HumidityBarometerVisibility
12:30 am
Tue, Jan 17
27 °FOvercast.12 mph74%30.30 "HgN/A
12:00 am27 °FPassing clouds.13 mph74%30.30 "HgN/A
11:30 pm
Mon, Jan 16
27 °FPassing clouds.12 mph74%30.30 "HgN/A
11:00 pm28 °FPassing clouds.10 mph69%30.30 "HgN/A
10:30 pm28 °FPassing clouds.10 mph74%30.27 "HgN/A
10:00 pm28 °FPassing clouds.13 mph74%30.27 "HgN/A
9:30 pm28 °FPassing clouds.9 mph74%30.27 "HgN/A
9:00 pm27 °FPassing clouds.8 mph86%30.27 "HgN/A
8:30 pm27 °FClear.8 mph86%30.27 "Hg10 mi
8:00 pm28 °FPassing clouds.12 mph80%30.24 "HgN/A
7:30 pm28 °FPassing clouds.8 mph80%30.24 "HgN/A
7:00 pm30 °FLight snow. Passing clouds.9 mph75%30.24 "HgN/A
6:30 pm30 °FLight snow. Partly cloudy.9 mph75%30.24 "HgN/A
6:00 pm30 °FPassing clouds.8 mph75%30.24 "HgN/A
5:30 pm30 °FPassing clouds.9 mph80%30.24 "HgN/A
5:00 pm30 °FPartly sunny.12 mph69%30.21 "HgN/A
4:30 pm30 °FPartly sunny.9 mph75%30.21 "HgN/A
4:00 pm30 °FPartly sunny.9 mph75%30.21 "HgN/A
3:30 pm32 °FPartly sunny.10 mph69%30.21 "HgN/A
3:00 pm32 °FBroken clouds.12 mph69%30.21 "HgN/A
2:30 pm30 °FScattered clouds.7 mph80%30.21 "HgN/A
2:00 pm30 °FScattered clouds.12 mph80%30.21 "HgN/A
1:30 pm32 °FPartly sunny.10 mph80%30.21 "HgN/A
1:00 pm30 °FPartly sunny.12 mph86%30.21 "HgN/A
12:30 pm28 °FPartly sunny.9 mph86%30.21 "HgN/A
12:00 pm28 °FPartly sunny.7 mph93%30.21 "HgN/A
11:30 am28 °FPartly sunny.3 mph93%30.21 "Hg5 mi
11:00 am28 °FLight mixture of precip. Partly sunny.6 mph86%30.21 "Hg5 mi
10:00 am27 °FPartly sunny.2 mph93%30.21 "HgN/A
9:30 am27 °FPartly sunny.3 mph93%30.21 "HgN/A
9:00 am27 °FPartly sunny.2 mph93%30.21 "HgN/A
8:30 am27 °FPartly sunny.1 mph93%30.18 "HgN/A
8:00 am27 °FPassing clouds.2 mph93%30.18 "HgN/A
7:30 am25 °FLight snow. Passing clouds.2 mph93%30.18 "HgN/A
7:00 am25 °FLight snow. Mostly cloudy.1 mph93%30.18 "HgN/A
6:30 am25 °FPassing clouds.3 mph93%30.18 "HgN/A
6:00 am23 °FClear.No wind93%30.15 "Hg10 mi
5:30 am23 °FPassing clouds.2 mph93%30.15 "Hg5 mi
5:00 am25 °FPassing clouds.6 mph93%30.15 "Hg5 mi
4:30 am23 °FPassing clouds.5 mph100%30.15 "Hg5 mi
4:00 am25 °FClear.2 mph93%30.15 "Hg10 mi
3:30 am27 °FPassing clouds.3 mph93%30.15 "HgN/A
3:00 am28 °FOvercast.2 mph93%30.15 "HgN/A
2:30 am27 °FOvercast.3 mph93%30.15 "Hg6 mi
2:00 am25 °FPassing clouds.2 mph93%30.15 "Hg6 mi
Weather by CustomWeather, © 2017

See weather overviewHow to use our weather pages